Simultaneous Nadir Overpasses (SNOs) Predictions

Prediction of SNOs between LANDSAT-8 and METOP-A Satellite Orbit:

Table of predicted SNOs for the next 14.0 days since TLE Epoch: 8/11/2018
Index Date (LANDSAT-8) Time (LANDSAT-8) Lat,Lon (LANDSAT-8) SZA (LANDSAT-8 ) Date (METOP-A) Time (METOP-A) Lat,Lon (METOP-A) SZA (METOP-A ) Distance(km) Time Diff (sec)
1 08/11/2018 03:48:06 81.38, 167.49 68.49 08/11/2018 03:48:45 81.39, 167.41 68.50 1.44 39
2 08/13/2018 22:32:56 -81.39, 66.43 110.65 08/13/2018 22:32:21 -81.39, 66.54 110.65 1.83 35
3 08/13/2018 23:22:22 81.40,-125.79 69.39 08/13/2018 23:23:00 81.39,-125.59 69.42 3.27 38
4 08/16/2018 18:07:13 -81.38, 132.77 109.77 08/16/2018 18:06:38 -81.39, 132.77 109.79 0.17 35
5 08/16/2018 18:56:39 81.39, -59.48 70.26 08/16/2018 18:57:17 81.39, -59.40 70.29 1.34 38
6 08/19/2018 13:41:29 -81.38,-160.93 108.87 08/19/2018 13:40:54 -81.38,-161.03 108.90 1.77 35
7 08/19/2018 14:30:54 81.40, 7.18 71.21 08/19/2018 14:31:32 81.39, 7.16 71.22 0.76 38
8 08/22/2018 09:15:45 -81.39, -94.26 107.89 08/22/2018 09:15:10 -81.38, -94.45 107.93 3.08 35




NCC Satellite Simultaneous Nadir Overpasses (SNOs) Prediction Service
